Погода в Тлярате

Россия / Республика Дагестан     42°06′19″N   46°21′23″E
темп.,
°C
ветер,
м/с
пор.,
м/с
влажн.,
%
обл.,
%
осадки,
мм/ч
давл.,
гПа
погр.,
м
26 июня, вс
вс2600:00+9св4591100 3.6 1014102
03:00+10всв4487100 4.7 101269
06:00+11в2284100 0.7 101177
09:00+10ю4496100 3.3 1011293
12:00+14с0168100 9.1 1009684
15:00+14ююз326847 11.3 1008373
18:00+11ююз3496100 3.3 1010297
21:00+9всв228137 6.4 101113
27 июня, пн
пн2700:00+8св33765 0.5 101218
03:00+9св43725 0.6 101219
06:00+12св33724 0.0 101147
09:00+17ююз22610 0.2 1010545
12:00+18ююз43610 0.6 1010829
15:00+18ююз33650 0.9 1009641
18:00+16юз22685 0.4 1010233
21:00+11св217890 1.5 101312
28 июня, вт
вт2800:00+11св558397 2.8 101467
03:00+10св33730 2.9 101316
06:00+13всв22720 0.0 101251
09:00+17ююз32590 0.3 1010678
12:00+18ююз33600 0.8 1011968
15:00+18ююз33590 1.3 10101076
18:00+16ююз22660 0.3 1012335
21:00+10св43810 1.1 101624
29 июня, ср
ср2900:00+9св338437 2.2 101621
03:00+9св228220 4.9 101513
06:00+11ююв11810 1.3 101568
09:00+13ююз439021 3.3 1015388
12:00+14ююз338780 1.5 1015552
15:00+14ююз338568 3.9 1015519
18:00+14ю228313 2.8 1015304
21:00+10в228480 9.6 101714
30 июня, чт
чт3000:00+10зюз119293 2.8 101712
03:00+8св11931 3.2 101611
06:00+11юз12781 0.0 1017221
09:00+13юз32738 0.0 1016605
12:00+14ююз437983 0.2 1015803
15:00+14ююз327486 0.4 1014826
18:00+13ю227477 0.1 1015686
21:00+9юв11845 0.3 101613